SCP
0 0 0 0 0 0 0 0 0 0 0 0 0 0 0 0 0 0 0 0 0 0
0 0 0 0 0 0 0 0 0 0 0 0 0 0 0 0 0 0 0 0 0 0
0 0 0 0 0 0 0 0 0 0 0 0 0 0 0 0 0 0 0 0 0 0
0 0 0 0 0 0 0 0 0 0 0 0 0 0 0 0 0 0 0 0 0 0
0 0 0 0 0 0 0 0 0 0 0 0 0 0 0 0 0 0 0 0 0 0
0 0 0 0 0 0 0 0 0 0 0 0 0 0 0 0 0 0 0 0 0 0
0 0 0 0 0 0 0 0 0 0 0 0 0 0 0 0 0 0 0 0 0 0
0 0 0 0 0 0 0 0 0 0 0 0 0 0 0 0 0 0 0 0 0 0
0 0 0 0 0 0 0 0 0 0 0 0 0 0 0 0 0 0 0 0 0 0
0 0 0 0 0 0 0 0 0 0 0 0 0 0 0 0 0 0 0 0 0 0
0 0 0 0 0 0 0 0 0 0 0 0 0 0 0 0 0 0 0 0 0 0
0 0 0 0 0 0 0 0 0 0 0 0 0 0 0 0 0 0 0 0 0 0
0 0 0 0 0 0 0 0 0 0 0 0 0 0 0 0 0 0 0 0 0 0
0 0 0 0 0 0 0 0 0 0 0 0 0 0 0 0 0 0 0 0 0 0
Wind_Speed_500mb
67 67 67 64 61 53 56 58 58 52 46 46 44 43 34 37 36 38 30 26 23 22
62 62 62 62 63 59 57 57 53 52 46 47 43 39 36 35 26 23 20 19 21 21
55 60 63 65 67 67 65 50 49 48 38 44 34 35 33 27 22 20 20 17 12 7
53 56 55 52 51 50 46 36 45 31 36 35 28 28 29 25 21 19 13 9 4 0
48 44 37 31 26 26 32 35 36 31 33 33 30 26 21 19 17 13 10 9 6 4
29 22 19 18 19 24 29 29 28 34 28 29 26 22 19 16 15 13 11 9 6 3
23 22 23 24 27 29 32 31 32 29 31 25 23 21 22 20 16 15 10 7 2 2
26 28 30 31 32 33 34 33 31 31 30 28 26 24 21 20 17 11 5 4 2 2
33 34 35 35 35 36 35 34 33 32 32 33 31 29 26 18 11 6 7 8 7 6
38 38 38 39 39 38 38 37 38 38 36 35 33 30 24 14 10 11 11 11 10 10
41 41 42 43 41 42 40 41 41 41 39 37 35 31 19 11 14 15 14 12 13 8
44 45 46 45 45 43 46 46 44 41 38 36 34 23 14 15 17 16 15 17 14 7
45 46 45 46 48 49 49 48 47 45 42 39 27 16 16 20 19 18 18 19 13 5
45 44 44 48 50 52 53 52 51 49 46 36 24 16 21 24 21 19 21 17 11 6
Wind_Direction_500mb
245 249 253 253 252 256 256 256 258 264 255 259 259 268 269 268 274 270 277 263 251 271
246 250 253 251 254 253 252 254 260 258 252 256 254 262 269 266 244 261 256 261 272 282
247 250 252 252 249 249 250 248 247 247 256 237 249 256 250 246 241 247 256 264 257 256
250 252 251 251 249 245 242 233 238 232 236 258 244 236 247 240 247 239 228 193 176 223
253 253 248 240 230 220 216 218 216 239 245 243 241 227 233 232 208 191 165 156 139 87
241 235 221 208 198 197 195 204 229 248 237 220 227 224 212 193 177 162 148 130 105 78
219 203 194 198 202 208 218 226 218 229 225 222 226 200 183 177 166 156 142 132 205 303
209 199 196 197 200 203 209 218 219 217 220 206 190 179 173 166 160 153 176 237 223 171
200 197 197 201 208 207 211 210 212 215 199 187 179 174 167 162 165 232 239 211 192 145
206 202 203 206 208 209 210 215 210 196 188 184 182 175 168 171 224 234 212 203 173 148
212 208 207 209 211 212 212 207 197 191 188 187 183 175 180 221 232 215 204 186 173 166
218 214 212 214 213 211 203 197 194 192 190 187 181 187 211 225 212 211 199 188 188 182
222 218 217 215 209 203 199 198 193 191 185 183 196 208 223 214 215 212 204 200 201 212
220 216 212 210 205 203 199 197 195 193 189 192 199 227 216 217 220 212 211 214 216 243
Wind_Speed_850mb
67 67 67 64 61 53 56 58 58 52 46 46 44 43 34 37 36 38 30 26 23 22
62 62 62 62 63 59 57 57 53 52 46 47 43 39 36 35 26 23 20 19 21 21
55 60 63 65 67 67 65 50 49 48 38 44 34 35 33 27 22 20 20 17 12 7
53 56 55 52 51 50 46 36 45 31 36 35 28 28 29 25 21 19 13 9 4 0
48 44 37 31 26 26 32 35 36 31 33 33 30 26 21 19 17 13 10 9 6 4
29 22 19 18 19 24 29 29 28 34 28 29 26 22 19 16 15 13 11 9 6 3
23 22 23 24 27 29 32 31 32 29 31 25 23 21 22 20 16 15 10 7 2 2
26 28 30 31 32 33 34 33 31 31 30 28 26 24 21 20 17 11 5 4 2 2
33 34 35 35 35 36 35 34 33 32 32 33 31 29 26 18 11 6 7 8 7 6
38 38 38 39 39 38 38 37 38 38 36 35 33 30 24 14 10 11 11 11 10 10
41 41 42 43 41 42 40 41 41 41 39 37 35 31 19 11 14 15 14 12 13 8
44 45 46 45 45 43 46 46 44 41 38 36 34 23 14 15 17 16 15 17 14 7
45 46 45 46 48 49 49 48 47 45 42 39 27 16 16 20 19 18 18 19 13 5
45 44 44 48 50 52 53 52 51 49 46 36 24 16 21 24 21 19 21 17 11 6
Wind_Direction_850mb
245 249 253 253 252 256 256 256 258 264 255 259 259 268 269 268 274 270 277 263 251 271
246 250 253 251 254 253 252 254 260 258 252 256 254 262 269 266 244 261 256 261 272 282
247 250 252 252 249 249 250 248 247 247 256 237 249 256 250 246 241 247 256 264 257 256
250 252 251 251 249 245 242 233 238 232 236 258 244 236 247 240 247 239 228 193 176 223
253 253 248 240 230 220 216 218 216 239 245 243 241 227 233 232 208 191 165 156 139 87
241 235 221 208 198 197 195 204 229 248 237 220 227 224 212 193 177 162 148 130 105 78
219 203 194 198 202 208 218 226 218 229 225 222 226 200 183 177 166 156 142 132 205 303
209 199 196 197 200 203 209 218 219 217 220 206 190 179 173 166 160 153 176 237 223 171
200 197 197 201 208 207 211 210 212 215 199 187 179 174 167 162 165 232 239 211 192 145
206 202 203 206 208 209 210 215 210 196 188 184 182 175 168 171 224 234 212 203 173 148
212 208 207 209 211 212 212 207 197 191 188 187 183 175 180 221 232 215 204 186 173 166
218 214 212 214 213 211 203 197 194 192 190 187 181 187 211 225 212 211 199 188 188 182
222 218 217 215 209 203 199 198 193 191 185 183 196 208 223 214 215 212 204 200 201 212
220 216 212 210 205 203 199 197 195 193 189 192 199 227 216 217 220 212 211 214 216 243